Location: *
(46.1833°N, 22.7667°E)
Time: 01:43:06
(UTC+00:00)

Cosmos 1624 Rocket - Pass Details

Date: 17 September 2019
Orbit: 757 x 784 km, 74.0° (Epoch: 18 October)

Event Time Altitude Azimuth Distance (km) Brightness Sun altitude
Rises 18:55:22 0° 204° (SSW) 3,207 7.2 -23.5°
Reaches altitude 10° 18:57:43 10° 206° (SSW) 2,283 6.4 -23.9°
Maximum altitude 19:02:54 77° 292° (WNW) 783 4.0 -24.6°
Drops below altitude 10° 19:08:07 10° 19° (NNE) 2,296 6.6 -25.4°
Sets 19:10:30 0° 21° (NNE) 3,227 7.4 -25.7°
